Tracking 30995 objects as of 6-Jul-2025
HD Live streaming from Space Station
objects crossing your sky now

BREEZE-M R/B

Track BREEZE-M R/B now!


NORAD ID: 40278
Int'l Code: 2014-064B
Perigee: 34,687.4 km
Apogee: 39,855.7 km
Inclination: 8.4 °
Period: 1,512.3 minutes
Semi major axis: 43642 km
RCS: Unknown
Launch date: October 21, 2014
Source: Commonwealth of Independent States (former USSR) (CIS)
Launch site: TYURATAM MISSILE AND SPACE COMPLEX (TTMTR)

Note: This is a ROCKET BODY
Your satellite tracking list
Your tracking list is empty




NASA's NSSDC Master Catalog

Two Line Element Set (TLE):
1 40278U 14064B   25185.61005267 -.00000130  00000-0  00000-0 0  9999
2 40278   8.4019  66.1614 0592116 209.0983 147.3728  0.95222150 37215
Source of the keplerian elements: AFSPC